Regional Weather Roundup
Issued by NWS

Home | Current Version | Previous Version | Text Only | Print | Product List | Glossary On
Versions: 1 2 3 4 5 6 7 8 9 10 11 12 13 14 15 16 17 18 19 20 21 22 23 24 25 26 27 28 29 30 31 32 33 34 35 36 37 38 39 40 41 42 43 44 45 46 47 48 49 50
000
ASHW40 PHFO 250210
RWRHI

WEATHER ROUNDUP FOR HAWAII
NATIONAL WEATHER SERVICE HONOLULU HI
400 PM HST SUN MAY 24 2015

THIS IS AN AUTOMATED REPORT THAT HAS NOT BEEN QUALITY CONTROLLED.

NOTE..."FAIR" INDICATES FEW OR NO CLOUDS BELOW 12,000 FEET WITH NO
SIGNIFICANT WEATHER AND/OR OBSTRUCTIONS TO VISIBILITY.

* - THESE SITES REPORT LIMITED FIELDS

HIZ001>004-250300-
KAUAI-NIIHAU-

CITY           SKY/WX    TMP DP  RH WIND       PRES   REMARKS
LIHUE APT      CLOUDY    73  60  63 N16       30.04F
PORT ALLEN*    NOT AVBL
POIPU*           N/A     75 N/A N/A NE9G20      N/A
PRINCEVILLE*     N/A     73 N/A N/A MISG        N/A
KOKOLE POINT*  NOT AVBL
MOLOAA DAIRY*  NOT AVBL
WAIMEA HTS*    NOT AVBL
PUU OPAE*      NOT AVBL
PUU LUA*       NOT AVBL
MAKAHA RIDGE*  NOT AVBL
$$

HIZ005>011-250300-
OAHU-

CITY           SKY/WX    TMP DP  RH WIND       PRES   REMARKS
HONOLULU       PTSUNNY   76  59  55 N13       30.00F
KALAELOA       CLOUDY    76  58  53 VRB5G16   30.01F
KANEOHE MCB    CLOUDY    75  59  57 N17       29.99F
WHEELER FIELD  FAIR      73  58  59 N12       30.01F
BELLOWS*       NOT AVBL
KAHUKU*        NOT AVBL
WHEELER*       NOT AVBL
WAIANAE HARBOR NOT AVBL
DILLINGHAM*      N/A     77  59  53 MISG        N/A
KAHUKU TRN*      N/A     72  55  56 N8G17       N/A
KAWAILOA*        N/A     66  57  72 NE7G18      N/A
KII*             N/A     73  59  60 N13G18      N/A
MAKUA RANGE*     N/A     75  59  57 E9G26       N/A
OAHU FOREST NW NOT AVBL
SCHOFIELD BRK*   N/A     70  57  64 MISG        N/A
SCHOFIELD S*   NOT AVBL
WAIANAE VLY*   NOT AVBL
KUAOKALA*      NOT AVBL
HONOULIUULI*   NOT AVBL
MOKUOLOE IS*     N/A    N/A N/A N/A MISG        N/A
PALEHUA*       NOT AVBL
WAIAWA PHB*    NOT AVBL
$$

HIZ012>013-250300-
MOLOKAI-

CITY           SKY/WX    TMP DP  RH WIND       PRES   REMARKS
MOLOKAI AIRPT  MOSUNNY   76  58  53 N14G21    30.01F
KALAUPAPA      NOT AVBL
MAKAPULAPAI*   NOT AVBL
MOLOKAI 1*     NOT AVBL
PUU ALII*      NOT AVBL
$$

HIZ016-250300-
KAHOOLAWE-

CITY           SKY/WX    TMP DP  RH WIND       PRES   REMARKS
KAHOOLAWE*     NOT AVBL
HAKIOAWA*      NOT AVBL
HONOKANAIA*      N/A     83  59  44 N14G25    29.99
KANELOA*         N/A     77  59  53 NE18G33   30.03F
KEALIALALO*    NOT AVBL
LUA MAKIKA*    NOT AVBL
$$

HIZ014>015-250300-
LANAI-

CITY           SKY/WX    TMP DP  RH WIND       PRES   REMARKS
LANAI CITY     FAIR      72  57  59 NE22      30.01F
LANAI 1*       NOT AVBL
$$

HIZ017>028-250300-
MAUI-

CITY           SKY/WX    TMP DP  RH WIND       PRES   REMARKS
KAHULUI        MOSUNNY   78  61  55 NE15      30.01F
KAPALUA-W MAUI MOSUNNY   75  57  53 NE18G25   30.01
HANA AIRPORT   CLOUDY    70  63  78 W6        30.04S
HANA*          NOT AVBL
HALEAKALA SUMM NOT AVBL
MAALAEA BAY*   NOT AVBL
HALEAKALA*     NOT AVBL
KAUPO GAP*     NOT AVBL
KULA 1*          N/A     60  51  72 NW3         N/A
$$

HIZ023>026-250300-
BIG ISLAND OF HAWAII COAST AND LOWER SLOPES-

CITY           SKY/WX    TMP DP  RH WIND       PRES   REMARKS
KAILUA KONA    SUNNY     84  62  47 NW16G22   29.93F
HILO           CLOUDY    73  63  70 N12       30.00S
HONOKAA*       NOT AVBL
KAWAIHAE MWT*  NOT AVBL
KAWAIHAE*        N/A     81 N/A N/A W8          N/A
SOUTH POINT*   NOT AVBL
UPOLU AIRPORT* NOT AVBL
KAMUELA*       CLOUDY    72  57  60 NE18      30.06S
HAKALAU*         N/A     54  53  97 NE3         N/A
KALOKO-HONOKO* NOT AVBL
PALI 2*          N/A     64  59  82 NE10G16     N/A
KEALAKOMO*       N/A     57  45  62 N20G30      N/A
KAUPULEHU*     NOT AVBL
KAPAPALA*        N/A     66  64  94 N3          N/A
LOWER KAHUKU*  NOT AVBL
PUHE CS*       NOT AVBL
PUHO CS*       NOT AVBL
PTA KEAMUKU*     N/A     63  55  77 CALM        N/A
WAIKOLOA*      NOT AVBL
$$

HIZ027>028-250300-
BIG ISLAND OF HAWAII INTERIOR AND SUMMMITS-

CITY           SKY/WX    TMP DP  RH WIND       PRES   REMARKS
BRADSHAW FIELD MOSUNNY   64  51  62 W9        30.24F
MK VISITOR CEN NOT AVBL
MAUNA KEA*       N/A     48  19  32 NW9         N/A
MAUNA LOA*       N/A    N/A N/A N/A MISG        N/A
MAUNA LOA 1*   NOT AVBL
PTA KIPUKA*      N/A     63  55  77 N7G17       N/A
PTA RANGE 17*    N/A     63  54  72 W8G16       N/A
PTA WEST*        N/A     70  63  78 NW5G16      N/A
NENE CABIN*    NOT AVBL
AHUMOA*        NOT AVBL
PTA PORTABLE*  NOT AVBL
PUU MALI*        N/A     52  50  93 N5          N/A
$$

HIC003-250300-
NORTHWEST ISLANDS-

CITY           SKY/WX    TMP DP  RH WIND       PRES   REMARKS
MIDWAY ISLAND  SUNNY    N/A N/A N/A E9        30.26F
MIDWAY NOS*    NOT AVBL
FRENCH FRIGATE NOT AVBL
$$

PHZ110>124-180-250300-
BUOY REPORTS

STATION/POSITION TIME  TEMP    WIND        PRES    WAVE   SWELL
                       AIR SEA DIR/SP/G            HT/PER HT/DIR
                 (UTC) (F)     (DEG/KT/KT) (MB)    (FT/S) (FT/D)
BUOY 51001       NOT AVBL
BUOY 51101       0200   71 76   30/ 17/ 19 1019.1F   7/16   7/300
BUOY 51100       NOT AVBL
BUOY 51002       0200   76 79   30/ 14/ 16 1014.3F   7/15   7/170
BUOY 51003       0100   76 79   40/ 14/ 17 1016.3F   7/ 9   7
BUOY 51004       0115   78 80   20/ 12/ 16 1013.7F   7/11   7
BARBERS PT BUOY  NOT AVBL
WAIMEA BAY BUOY  0200      77                N/A     6/11   3
KAILUA BAY BUOY  0200      77                N/A     6/11   3/ 10
LANAI BUOY       NOT AVBL
BARBERS PT 2     0200      77                N/A     4/13   3/190
PAUWELA MAUI     0200      78                N/A     7/11   3/ 10
HILO             0200      77                N/A     7/11   3/ 10
KANEOHE BAY BUOY 0200      77                N/A     6/11   3/ 20
HANALEI KAUAI    0200      78                N/A     8/10   3/350
KAHULUI HARBOR   0200   73 78   10/ 12/ 14 1016.0F
HONOLULU HARBOR  0200   74 77   30/  3/  8 1016.1F
KILO NALU        NOT AVBL
HILO HARBOR      0200   71 75   10/ 20/ 23 1015.2F
MOKUOLOE         0200      78              1016.6S
NAWILIWILI       0200   73 78   20/ 12/ 19 1017.0S
WHOTS BUOY       NOT AVBL
BUOY 51028       NOT AVBL
$$

......................KEY........................................
  SKY/WX - SKY CONDITIONS/PRESENT WEATHER
  TMP    - TEMPERATURE IN FAHRENHEIT
  DWPT   - DEWPOINT IN FAHRENHEIT
  RH     - RELATIVE HUMIDITY IN PERCENT
  WIND   - DIRECTION AND SPEED /MPH FOR ISLANDS...KTS FOR BUOYS/
  PRES   - MEAN SEA LEVEL PRESSURE IN INCHES OF HG
  VSB    - VISIBILITY IN MILES
  HX     - HEAT INDEX
  WCI    - WIND CHILL INDEX
  VRB    - VARIABLE WIND DIRECTION
  N/A    - NOT AVAILABLE


USA.gov is the U.S. government's official web portal to all federal, state and local government web resources and services.